Tracking 19254 objects as of 22-Oct-2018
HD Live streaming from Space Station
objects crossing your sky now

COSMOS 858

Track COSMOS 858 now!
10-day predictions
COSMOS 858 is classified as:


NORAD ID: 9443
Int'l Code: 1976-098A
Perigee: 774.6 km
Apogee: 795.7 km
Inclination: 74.0 °
Period: 100.4 minutes
Semi major axis: 7156 km
RCS: 2.2223 m2 (large)
Launch date: September 29, 1976
Source: Commonwealth of Independent States (former USSR) (CIS)
Launch site: PLESETSK MISSILE AND SPACE COMPLEX (PKMTR)
aabbcc
Your satellite tracking list
Your tracking list is empty




NASA's NSSDC Master Catalog

Two Line Element Set (TLE):
1  9443U 76098A   18294.85149633 -.00000002  00000-0  85233-5 0  9992
2  9443  74.0499 232.4652 0014784 317.0906  42.9091 14.34108651198229
Source of the keplerian elements: AFSPC